GW1377 Weather Reports


time (UTC)temp
C
wind
direction
speed
KPH
gust
KPH
rain 1hr
cm
rain 24hr
cm
rain mn
cm
humidity
%
barometer
mb
20260507071607 5 228 4.8 11.3 0.00 2.95 0.05 91 1002.8
20260507071039 5 220 1.6 9.7 0.00 2.95 0.05 91 1002.8
20260507070539 5 228 3.2 9.7 0.00 2.95 0.05 91 1002.5
20260507070049 5 224 3.2 8.0 0.00 2.95 0.05 91 1002.6
20260507065538 6 223 1.6 6.4 0.00 2.95 0.05 90 1002.4
20260507065038 6 248 1.6 8.0 0.00 2.95 0.05 89 1002.3
20260507064549 5 280 3.2 9.7 0.00 2.95 0.05 91 1002.3
20260507064038 5 261 3.2 9.7 0.00 2.95 0.05 91 1002.3
20260507063538 6 214 3.2 12.9 0.00 2.95 0.05 90 1002.4
20260507063047 6 260 3.2 16.1 0.00 2.95 0.05 91 1002.5
20260507062538 6 245 4.8 16.1 0.00 2.95 0.05 91 1002.3
20260507062038 6 272 9.7 17.7 0.00 2.95 0.05 90 1002.3
20260507061555 6 259 8.0 17.7 0.00 2.95 0.05 91 1002.4
20260507061038 6 236 9.7 17.7 0.00 2.95 0.05 91 1002.6
20260507060538 6 233 6.4 12.9 0.00 2.95 0.05 91 1002.3
20260507060050 6 239 6.4 11.3 0.00 2.95 0.05 92 1002.2
20260507055542 6 255 4.8 9.7 0.00 2.95 0.05 94 1002.2
20260507055039 6 248 4.8 9.7 0.00 2.95 0.05 93 1002.2
20260507054547 6 243 6.4 9.7 0.00 2.95 0.05 93 1001.8
20260507054038 6 224 4.8 14.5 0.00 2.95 0.05 93 1001.8
20260507053542 6 235 6.4 14.5 0.03 2.95 0.05 94 1002.0
20260507053115 6 262 4.8 12.9 0.03 2.95 0.05 94 1002.2
20260507052538 6 207 3.2 12.9 0.03 2.95 0.05 94 1002.1
20260507052038 6 278 4.8 19.3 0.03 2.95 0.05 94 1002.2
20260507051557 6 250 9.7 19.3 0.03 2.95 0.05 94 1002.2
20260507051038 6 259 6.4 17.7 0.03 2.95 0.05 93 1002.0
20260507050538 6 233 8.0 17.7 0.03 2.95 0.05 93 1002.0
20260507050048 6 252 6.4 14.5 0.05 2.95 0.05 94 1002.2
20260507045544 6 232 6.4 11.3 0.05 2.97 0.05 94 1002.1
20260507045039 6 241 3.2 8.0 0.08 2.97 0.05 94 1002.0
20260507044549 7 259 1.6 6.4 0.10 2.97 0.05 95 1001.9
20260507044038 7 229 1.6 6.4 0.15 2.97 0.05 94 1002.1
20260507043539 7 255 0.0 4.8 0.15 2.95 0.03 94 1002.1
20260507043050 7 269 1.6 8.0 0.15 2.95 0.03 95 1002.1
20260507042539 7 266 0.0 11.3 0.18 2.95 0.03 95 1002.1
20260507042038 7 236 1.6 16.1 0.20 2.95 0.03 95 1002.4
20260507041547 7 245 4.8 16.1 0.23 2.95 0.03 96 1002.5
20260507041035 7 240 8.0 16.1 0.25 2.95 0.03 97 1002.6
20260507040539 7 231 3.2 9.7 0.30 2.95 0.03 97 1002.5
20260507040049 7 261 1.6 11.3 0.33 2.95 0.00 97 1002.5
20260507035538 7 232 3.2 11.3 0.36 2.95 2.95 96 1002.4
20260507035038 7 253 8.0 12.9 0.36 2.92 2.92 97 1002.5
20260507034549 7 241 3.2 12.9 0.33 2.90 2.90 97 1002.7
20260507034038 7 234 8.0 14.5 0.30 2.84 2.84 97 1002.5
20260507033538 7 258 6.4 14.5 0.30 2.82 2.82 98 1002.3
20260507033051 8 287 8.0 16.1 0.33 2.82 2.82 97 1002.2
20260507032539 8 270 8.0 16.1 0.33 2.79 2.79 98 1002.1
20260507032038 8 278 8.0 17.7 0.33 2.77 2.77 98 1001.9
20260507031549 8 222 8.0 17.7 0.36 2.74 2.74 99 1001.9
20260507031043 8 226 8.0 22.5 0.33 2.67 2.67 99 1001.9
20260507030540 8 241 8.0 22.5 0.38 2.64 2.64 99 1001.8
20260507030049 8 238 12.9 22.5 0.36 2.59 2.59 100 1002.1
20260507025540 8 219 8.0 14.5 0.38 2.59 2.59 100 1001.9
20260507025042 9 205 0.0 11.3 0.36 2.57 2.57 100 1001.7
20260507024559 9 0 0.0 3.2 0.36 2.57 2.57 100 1001.6
20260507024040 9 0 0.0 3.2 0.38 2.54 2.54 100 1001.7
20260507023540 9 0 0.0 1.6 0.38 2.51 2.51 100 1001.6
20260507023055 9 0 0.0 1.6 0.36 2.49 2.49 100 1001.6
20260507022539 9 0 0.0 3.2 0.36 2.46 2.46 100 1001.8
20260507022040 9 94 0.0 3.2 0.33 2.44 2.44 100 1001.9
20260507021549 9 0 0.0 1.6 0.28 2.39 2.39 100 1002.0
20260507021041 9 0 0.0 1.6 0.25 2.34 2.34 100 1002.1
20260507020541 9 0 0.0 0.0 0.20 2.29 2.29 100 1001.9
20260507020047 9 0 0.0 0.0 0.15 2.24 2.24 100 1001.8
20260507015536 9 0 0.0 3.2 0.13 2.21 2.21 100 1001.6
20260507015041 9 0 0.0 3.2 0.13 2.21 2.21 100 1001.5
20260507014603 9 34 0.0 3.2 0.13 2.18 2.18 100 1001.6
20260507014041 9 91 0.0 1.6 0.13 2.16 2.16 100 1001.6
20260507013540 9 334 0.0 3.2 0.10 2.13 2.13 100 1001.8
20260507013051 10 19 0.0 4.8 0.13 2.13 2.13 100 1001.8
20260507012540 10 0 0.0 6.4 0.10 2.11 2.11 100 1001.8
20260507012040 10 17 0.0 6.4 0.13 2.11 2.11 100 1001.9
20260507011551 10 20 0.0 3.2 0.15 2.11 2.11 100 1001.8
20260507011042 10 0 0.0 6.4 0.15 2.08 2.08 100 1001.9
20260507010540 10 0 0.0 8.0 0.15 2.08 2.08 100 1001.9
20260507005540 11 19 3.2 6.4 0.33 2.08 2.08 100 1001.6
20260507005039 11 0 1.6 6.4 0.33 2.06 2.06 100 1001.6
20260507004605 11 42 0.0 11.3 0.33 2.06 2.06 100 1001.8
20260507004041 11 330 1.6 11.3 0.30 2.03 2.03 100 1001.7
20260507003541 11 335 6.4 11.3 0.33 2.03 2.03 100 1001.7
20260507003055 11 323 4.8 9.7 0.30 2.01 2.01 100 1001.6
20260507002540 11 347 1.6 6.4 0.30 2.01 2.01 100 1001.6
20260507002040 11 0 0.0 9.7 0.33 1.98 1.98 100 1001.7
20260507001552 11 0 1.6 9.7 0.30 1.96 1.96 100 1001.8
20260507001040 11 298 4.8 9.7 0.28 1.93 1.93 100 1001.8
20260507000538 11 268 4.8 8.0 0.30 1.93 1.93 100 1001.7
20260507000054 12 257 3.2 8.0 0.20 1.80 1.80 100 1001.8
20260506235542 12 70 0.0 0.0 0.15 1.78 1.75 100 1001.4
20260506235039 12 0 0.0 0.0 0.13 1.75 1.73 100 1001.4
20260506234548 12 0 0.0 0.0 0.15 1.75 1.73 100 1001.4
20260506234042 12 0 0.0 0.0 0.15 1.75 1.73 100 1001.4
20260506233542 12 0 0.0 0.0 0.13 1.73 1.70 100 1001.4
20260506233056 12 0 0.0 1.6 0.18 1.73 1.70 100 1001.4
20260506232538 12 0 0.0 1.6 0.25 1.73 1.70 100 1001.4
20260506232039 12 108 0.0 0.0 0.25 1.68 1.65 100 1001.5
20260506231550 12 0 0.0 0.0 0.25 1.68 1.65 100 1001.5
20260506231039 12 0 0.0 0.0 0.25 1.68 1.65 100 1001.6
20260506230538 12 0 0.0 0.0 0.23 1.65 1.63 100 1001.6
20260506230052 12 0 0.0 0.0 0.20 1.63 1.60 100 1001.6
20260506225543 12 0 0.0 0.0 0.20 1.75 1.60 100 1001.6
20260506225039 12 0 0.0 0.0 0.23 1.75 1.60 100 1001.6
20260506224551 12 0 0.0 1.6 0.20 1.73 1.57 100 1001.6
20260506224039 12 0 0.0 3.2 0.20 1.73 1.57 100 1001.7
20260506223539 12 0 0.0 3.2 0.20 1.73 1.57 100 1001.8
20260506223048 12 0 0.0 1.6 0.15 1.68 1.52 100 1001.9
20260506222539 12 0 0.0 3.2 0.10 1.60 1.45 100 1002.1
20260506222039 12 0 0.0 3.2 0.05 1.55 1.40 100 1002.1
20260506221551 12 91 0.0 1.6 0.05 1.55 1.40 100 1002.2
20260506221038 12 0 0.0 1.6 0.05 1.55 1.40 100 1002.2
20260506220539 12 0 0.0 1.6 0.05 1.55 1.40 100 1002.3
20260506220050 12 0 0.0 1.6 0.08 1.55 1.40 100 1002.4
20260506215538 12 0 0.0 1.6 0.08 1.73 1.40 100 1002.3
20260506215041 12 0 0.0 3.2 0.05 1.70 1.37 100 1002.4
20260506214600 12 109 0.0 3.2 0.08 1.70 1.37 100 1002.3
20260506214039 12 0 0.0 0.0 0.13 1.70 1.37 100 1002.5
20260506213541 12 0 0.0 0.0 0.18 1.70 1.37 100 1002.5
20260506213045 12 0 0.0 0.0 0.25 1.70 1.37 100 1002.6
20260506212538 12 0 0.0 0.0 0.30 1.68 1.32 100 1002.6
20260506212038 12 0 0.0 1.6 0.41 1.68 1.32 100 1002.6
20260506211556 12 0 0.0 1.6 0.48 1.68 1.32 100 1002.6
20260506211038 12 0 0.0 1.6 0.51 1.68 1.32 100 1002.6
20260506210537 11 0 0.0 1.6 0.51 1.68 1.32 100 1002.7
20260506210048 11 0 0.0 1.6 0.51 1.65 1.32 100 1002.7
20260506205538 12 279 0.0 1.6 0.51 1.65 1.32 100 1002.7
20260506205038 11 0 0.0 1.6 0.53 1.65 1.32 100 1002.5
20260506204552 11 0 0.0 1.6 0.51 1.63 1.30 100 1002.5
20260506204038 12 0 0.0 1.6 0.48 1.57 1.24 100 1002.6
20260506203542 11 0 0.0 1.6 0.46 1.52 1.19 100 1002.5
20260506203052 11 0 0.0 0.0 0.38 1.45 1.12 100 1002.6
20260506202539 11 0 0.0 1.6 0.33 1.37 1.04 100 1002.8
20260506202039 11 0 0.0 1.6 0.23 1.27 0.94 100 1002.8
20260506201551 11 0 0.0 1.6 0.18 1.19 0.86 100 1002.9
20260506201038 11 0 0.0 1.6 0.18 1.17 0.84 100 1002.8
20260506200539 11 0 0.0 1.6 0.20 1.17 0.84 100 1002.7
20260506200050 11 0 0.0 1.6 0.23 1.14 0.81 100 1002.8
20260506195538 11 0 0.0 3.2 0.28 1.14 0.81 100 1002.9
20260506195040 11 0 0.0 3.2 0.28 1.12 0.79 100 1002.9
20260506194548 11 0 0.0 3.2 0.33 1.12 0.79 100 1003.1
20260506194041 11 101 0.0 3.2 0.36 1.09 0.76 100 1003.2
20260506193538 11 0 0.0 3.2 0.36 1.07 0.74 100 1003.3
20260506193054 11 0 0.0 3.2 0.38 1.07 0.74 100 1003.3
20260506192538 11 108 0.0 3.2 0.41 1.04 0.71 100 1003.4
20260506192036 11 257 0.0 1.6 0.41 1.02 0.69 100 1003.4
20260506191559 11 0 0.0 1.6 0.43 1.02 0.69 100 1003.7
20260506191039 11 0 0.0 3.2 0.43 0.99 0.66 100 1003.6
20260506190538 11 84 0.0 3.2 0.41 0.94 0.61 100 1003.7
20260506190046 11 0 0.0 1.6 0.36 0.89 0.56 100 1003.7
20260506185538 11 0 0.0 1.6 0.33 0.86 0.53 100 1003.8
20260506185038 11 0 0.0 3.2 0.33 0.84 0.51 100 1003.8
20260506184550 11 0 0.0 3.2 0.28 0.79 0.46 100 1003.8
20260506184038 11 0 0.0 1.6 0.23 0.74 0.41 100 1003.9
20260506183539 11 0 0.0 1.6 0.23 0.71 0.38 100 1003.9
20260506183053 11 86 0.0 1.6 0.20 0.69 0.36 100 1003.9
20260506182538 11 0 0.0 1.6 0.15 0.64 0.30 100 1004.0
20260506182038 11 0 0.0 3.2 0.13 0.61 0.28 99 1004.1
20260506181556 11 95 0.0 4.8 0.10 0.58 0.25 99 1004.2
20260506181038 11 91 0.0 4.8 0.10 0.56 0.23 99 1004.0
20260506180539 11 0 0.0 4.8 0.08 0.53 0.20 99 1004.1
20260506180105 11 79 1.6 6.4 0.08 0.53 0.20 99 1004.2
20260506175538 11 96 1.6 6.4 0.08 0.53 0.20 99 1004.2
20260506175038 11 82 0.0 4.8 0.08 0.51 0.18 99 1004.2
20260506174546 11 0 0.0 9.7 0.08 0.51 0.18 99 1004.2
20260506174038 11 0 1.6 9.7 0.08 0.51 0.18 99 1004.3
20260506173538 11 0 3.2 8.0 0.05 0.48 0.15 99 1004.4
20260506173118 11 0 0.0 4.8 0.05 0.48 0.15 99 1004.4
20260506172538 11 0 0.0 6.4 0.05 0.48 0.15 99 1004.6
20260506172038 11 125 1.6 6.4 0.05 0.48 0.15 99 1004.6
20260506171550 11 0 3.2 6.4 0.05 0.48 0.15 98 1004.5
20260506171036 11 96 0.0 6.4 0.05 0.46 0.13 99 1004.3
20260506170539 11 67 0.0 3.2 0.05 0.46 0.13 99 1004.3
20260506170050 11 0 0.0 3.2 0.05 0.46 0.13 98 1004.9
20260506165538 11 0 0.0 3.2 0.08 0.46 0.13 98 1004.9
20260506165039 11 0 0.0 4.8 0.05 0.43 0.10 99 1004.9
20260506164547 11 343 1.6 4.8 0.05 0.43 0.10 99 1004.9
20260506164040 11 0 0.0 4.8 0.05 0.43 0.10 98 1005.5
20260506163538 11 95 0.0 8.0 0.05 0.43 0.10 98 1005.5
20260506163100 11 0 1.6 8.0 0.08 0.43 0.10 98 1005.7
20260506162538 11 0 0.0 6.4 0.08 0.43 0.10 98 1005.7
20260506162041 11 107 1.6 6.4 0.08 0.43 0.10 98 1005.7
20260506161555 11 108 0.0 0.0 0.08 0.43 0.10 97 1005.8
20260506161039 11 0 0.0 0.0 0.05 0.41 0.08 97 1005.8
20260506160539 11 0 0.0 0.0 0.05 0.41 0.08 96 1005.8
20260506160051 11 0 0.0 0.0 0.05 0.41 0.08 96 1005.9
20260506155541 11 0 0.0 1.6 0.03 0.38 0.05 96 1006.0
20260506155038 11 0 0.0 1.6 0.03 0.38 0.05 95 1006.0
20260506154552 11 0 0.0 1.6 0.03 0.38 0.05 95 1005.9
20260506154039 11 334 0.0 0.0 0.03 0.38 0.05 95 1006.0
20260506153539 11 0 0.0 0.0 0.03 0.38 0.05 95 1006.2
20260506153049 12 0 0.0 1.6 0.00 0.36 0.03 95 1006.0
20260506152538 11 0 0.0 3.2 0.00 0.36 0.03 94 1005.9
20260506152041 11 0 0.0 3.2 0.00 0.36 0.03 94 1005.9
20260506151551 11 0 0.0 3.2 0.00 0.36 0.03 94 1005.7
20260506151038 11 330 0.0 4.8 0.00 0.36 0.03 94 1005.9
20260506150538 11 27 0.0 4.8 0.00 0.36 0.03 95 1005.8
20260506150056 11 321 1.6 6.4 0.00 0.36 0.03 95 1005.8
20260506145539 11 0 1.6 6.4 0.00 0.36 0.03 95 1005.8
20260506145038 11 300 1.6 6.4 0.00 0.36 0.03 95 1005.8
20260506144602 11 340 3.2 6.4 0.00 0.36 0.03 95 1005.8
20260506144038 11 327 1.6 6.4 0.00 0.36 0.03 96 1005.9
20260506143539 11 284 1.6 6.4 0.00 0.36 0.03 96 1005.9
20260506143053 11 304 1.6 6.4 0.00 0.36 0.03 96 1006.0
20260506142539 11 264 1.6 4.8 0.00 0.36 0.03 96 1006.1
20260506142038 11 322 1.6 4.8 0.00 0.36 0.03 96 1006.2
20260506141548 11 264 1.6 6.4 0.00 0.36 0.03 96 1006.2
20260506141039 11 296 3.2 6.4 0.00 0.36 0.03 96 1006.2
20260506140538 11 267 1.6 4.8 0.00 0.36 0.03 96 1006.2
20260506140110 11 0 1.6 6.4 0.00 0.36 0.03 96 1006.4
20260506135538 11 334 1.6 6.4 0.00 0.36 0.03 96 1006.3
20260506135039 11 290 3.2 6.4 0.00 0.36 0.03 96 1006.3
20260506134554 11 326 1.6 4.8 0.00 0.36 0.03 95 1006.4
20260506134038 11 0 0.0 4.8 0.00 0.36 0.03 96 1006.3
20260506133538 11 295 0.0 4.8 0.00 0.36 0.03 95 1006.4
20260506133058 11 0 0.0 3.2 0.00 0.36 0.03 95 1006.4
20260506132539 11 283 0.0 3.2 0.00 0.36 0.03 95 1006.5
20260506132039 11 0 0.0 3.2 0.00 0.36 0.03 94 1006.6
20260506131557 11 0 0.0 1.6 0.00 0.36 0.03 94 1006.7
20260506131038 11 0 0.0 1.6 0.00 0.36 0.03 95 1006.8
20260506130539 11 35 0.0 0.0 0.00 0.36 0.03 94 1006.8
20260506130057 11 0 0.0 1.6 0.00 0.36 0.03 94 1007.0
20260506125538 11 0 0.0 1.6 0.00 0.36 0.03 94 1007.1
20260506125041 11 0 0.0 1.6 0.00 0.36 0.03 93 1007.1
20260506124546 11 0 0.0 4.8 0.00 0.36 0.03 93 1007.0
20260506124041 11 0 0.0 4.8 0.00 0.36 0.03 93 1006.9
20260506123538 11 0 0.0 3.2 0.00 0.36 0.03 94 1006.8
20260506123051 11 0 0.0 3.2 0.00 0.36 0.03 94 1007.2
20260506122538 11 359 0.0 3.2 0.00 0.36 0.03 95 1006.9
20260506122039 11 41 0.0 1.6 0.00 0.36 0.03 96 1007.0
20260506121557 11 0 0.0 1.6 0.00 0.36 0.03 96 1006.9
20260506121039 11 92 0.0 1.6 0.00 0.36 0.03 96 1007.1
20260506120538 11 0 0.0 8.0 0.00 0.36 0.03 96 1007.1
20260506120050 11 0 0.0 8.0 0.00 0.36 0.03 96 1007.1
20260506115541 11 70 1.6 8.0 0.00 0.36 0.03 96 1007.0
20260506115039 11 84 1.6 8.0 0.00 0.36 0.03 96 1006.9
20260506114550 11 0 0.0 6.4 0.00 0.36 0.03 96 1007.0
20260506114038 11 93 1.6 6.4 0.00 0.36 0.03 96 1007.0
20260506113538 11 108 1.6 6.4 0.00 0.36 0.03 96 1006.8
20260506113052 11 105 1.6 4.8 0.00 0.36 0.03 95 1006.8
20260506112538 11 91 0.0 3.2 0.00 0.36 0.03 95 1006.9
20260506112043 11 0 0.0 3.2 0.00 0.36 0.03 94 1007.0
20260506111552 11 0 0.0 4.8 0.00 0.36 0.03 94 1007.1
20260506111038 11 0 0.0 4.8 0.00 0.36 0.03 94 1006.9
20260506110538 11 0 0.0 3.2 0.00 0.36 0.03 94 1006.8
20260506110051 11 0 0.0 3.2 0.00 0.36 0.03 93 1006.8
20260506105538 11 0 1.6 3.2 0.00 0.36 0.03 93 1006.8
20260506105041 11 0 0.0 0.0 0.00 0.36 0.03 92 1006.7
20260506104555 11 0 0.0 0.0 0.00 0.36 0.03 90 1006.8
20260506104038 11 0 0.0 1.6 0.00 0.36 0.03 91 1006.9
20260506103538 11 0 0.0 1.6 0.00 0.36 0.03 91 1006.8
20260506103049 11 0 0.0 0.0 0.00 0.36 0.03 92 1006.8
20260506102542 11 0 0.0 1.6 0.00 0.36 0.03 92 1006.9
20260506102038 11 0 0.0 1.6 0.00 0.36 0.03 92 1006.8
20260506101546 10 0 0.0 1.6 0.00 0.36 0.03 92 1007.1
20260506101040 11 0 0.0 1.6 0.00 0.36 0.03 92 1006.9
20260506100538 10 0 0.0 1.6 0.00 0.36 0.03 92 1006.9
20260506100045 10 252 0.0 1.6 0.00 0.36 0.03 93 1006.6
20260506095539 10 0 0.0 1.6 0.00 0.36 0.03 94 1006.4
20260506095040 10 0 0.0 3.2 0.00 0.36 0.03 93 1006.5
20260506094605 10 0 0.0 4.8 0.00 0.36 0.03 93 1006.7
20260506094038 10 256 1.6 6.4 0.00 0.36 0.03 93 1006.8
20260506093539 10 270 1.6 6.4 0.00 0.36 0.03 93 1006.9
20260506093046 10 224 1.6 6.4 0.00 0.36 0.03 92 1007.1
20260506092539 11 220 3.2 6.4 0.00 0.36 0.03 91 1006.9
20260506092039 10 229 1.6 4.8 0.00 0.36 0.03 92 1006.7
20260506091546 10 248 0.0 4.8 0.00 0.36 0.03 94 1006.3
20260506091039 10 0 0.0 3.2 0.00 0.36 0.03 94 1006.1
20260506090538 10 0 0.0 3.2 0.00 0.36 0.03 94 1006.2
20260506090047 10 0 0.0 3.2 0.00 0.36 0.03 94 1006.4
20260506085538 10 0 0.0 3.2 0.00 0.36 0.03 93 1006.6
20260506085041 10 96 0.0 3.2 0.00 0.36 0.03 93 1006.5
20260506084551 10 76 0.0 1.6 0.00 0.36 0.03 93 1006.4
20260506084038 10 0 0.0 3.2 0.00 0.36 0.03 94 1006.3
20260506083538 11 0 0.0 3.2 0.00 0.36 0.03 94 1006.3
20260506083056 11 0 0.0 3.2 0.00 0.36 0.03 94 1006.5
20260506082538 11 76 0.0 3.2 0.00 0.36 0.03 94 1006.6
20260506082040 11 0 0.0 4.8 0.00 0.36 0.03 93 1006.6
20260506081547 11 96 0.0 4.8 0.00 0.36 0.03 92 1006.6
20260506081038 11 89 0.0 3.2 0.00 0.36 0.03 91 1006.9
20260506080542 11 0 0.0 1.6 0.00 0.36 0.03 89 1006.9
20260506080105 11 0 0.0 1.6 0.00 0.36 0.03 89 1006.8
20260506073102 12 253 0.0 8.0 0.00 0.36 0.03 87 1006.3
20260506072543 12 273 4.8 12.9 0.00 0.36 0.03 87 1006.3
20260506072041 12 237 3.2 14.5 0.00 0.36 0.03 87 1006.2